Burnet, TX

7:06 AM CDT on October 01, 2016 (GMT -0500)
Burnet Municipal-Craddock

Weather History for KBMQ - January, 2013

Change the Weather History Date:

Tuesday, January 8, 2013

  Actual Average Record
Temperature  
Mean Temperature 47 °F -  
Max Temperature 50 °F 57 °F 82 °F (2006)
Min Temperature 44 °F 37 °F 19 °F (2015)
Degree Days  
Heating Degree Days 18    
Moisture  
Dew Point 46 °F    
Average Humidity 93    
Maximum Humidity 97    
Minimum Humidity 66    
Precipitation  
Precipitation 1.16 in - - ()
Sea Level Pressure  
Sea Level Pressure 29.98 in    
Wind  
Wind Speed 7 mph (NE)    
Max Wind Speed 15 mph    
Max Gust Speed 20 mph    
Visibility 3 miles    
Events Fog , Rain , Thunderstorm    
Averages and records for this station are not official NWS values.
T = Trace of Precipitation, MM = Missing Value Source: NWS Daily Summary

Daily Weather History Graph

Daily Weather History Graph

Search for Another Location

Airport or City:

Trip Planner

Search our weather history database for the weather conditions in past years. The results will help you decide how hot, cold, wet, or windy it might be!

Date:

Astronomy

Jan. 08, 2013 Rise Set
Actual Time 7:31 AM CST 5:48 PM CST
Civil Twilight 7:05 AM CST 6:14 PM CST
Nautical Twilight 6:35 AM CST 6:44 PM CST
Astronomical Twilight 6:06 AM CST 7:13 PM CST
Moon 4:07 AM CST (1/8) 2:51 PM CST (1/8)
Length of Visible Light 11h 09m
Length of Day
10h 16m
Waning Crescent, 13% of the Moon is Illuminated
Jan 8
Waning Crescent
Jan 11
New
Jan 18
First Quarter
Jan 26
Full
Feb 3
Last Quarter

Hourly Weather History & Observations

Time (CST) Temp. Windchill Dew Point Humidity Pressure Visibility Wind Dir Wind Speed Gust Speed Precip Events Conditions
12:20 AM 48.0 °F - 37.0 °F 66% 30.07 in 10.0 mi East 5.8 mph - N/A   Overcast
12:53 AM 48.0 °F - 37.9 °F 68% 30.06 in 10.0 mi East 5.8 mph - N/A   Overcast
1:53 AM 46.9 °F - 39.0 °F 74% 30.05 in 9.0 mi ESE 4.6 mph - N/A   Overcast
2:05 AM 46.9 °F - 39.9 °F 77% 30.06 in 8.0 mi ESE 3.5 mph - N/A   Overcast
2:53 AM 46.9 °F - 41.0 °F 80% 30.03 in 6.0 mi East 5.8 mph - N/A   Haze
3:28 AM 46.0 °F 43.1 °F 43.0 °F 89% 30.03 in 4.0 mi East 5.8 mph - N/A   Overcast
3:51 AM 46.4 °F 43.5 °F 42.8 °F 87% 30.03 in 4.0 mi Variable 5.8 mph - 0.00 in Rain Light Rain
3:53 AM 46.0 °F 43.1 °F 43.0 °F 89% 30.02 in 3.0 mi East 5.8 mph - 0.00 in Rain Light Rain
4:00 AM 46.0 °F 43.1 °F 43.0 °F 89% 30.03 in 2.5 mi ENE 5.8 mph - 0.00 in Rain Light Rain
4:13 AM 46.0 °F 43.1 °F 43.0 °F 89% 30.03 in 1.8 mi ENE 5.8 mph - 0.00 in Rain Light Rain
4:22 AM 46.0 °F 42.5 °F 44.1 °F 93% 30.02 in 1.8 mi ENE 6.9 mph - 0.00 in Rain Light Rain
4:37 AM 46.0 °F 42.5 °F 43.0 °F 89% 30.02 in 2.0 mi East 6.9 mph - 0.00 in   Overcast
4:49 AM 44.6 °F 40.2 °F 42.8 °F 93% 30.01 in 1.8 mi ENE 8.1 mph - 0.00 in Rain Light Rain
4:53 AM 45.0 °F 40.6 °F 43.0 °F 93% 30.00 in 1.8 mi ENE 8.1 mph - 0.00 in Rain Light Rain
5:10 AM 45.0 °F 40.6 °F 43.0 °F 93% 30.00 in 2.0 mi ENE 8.1 mph - 0.00 in   Overcast
5:42 AM 45.0 °F 41.8 °F 43.0 °F 93% 29.99 in 1.8 mi ENE 5.8 mph - 0.00 in   Overcast
5:53 AM 45.0 °F 42.6 °F 44.1 °F 97% 29.99 in 2.0 mi ENE 4.6 mph - 0.00 in   Overcast
6:11 AM 45.0 °F 41.8 °F 44.1 °F 97% 30.00 in 1.5 mi NNE 5.8 mph - 0.00 in Rain Light Rain
6:14 AM 45.0 °F 41.8 °F 44.1 °F 97% 30.01 in 1.2 mi NNE 5.8 mph - 0.00 in Rain Light Rain
6:36 AM 45.0 °F 42.6 °F 43.0 °F 93% 30.02 in 2.0 mi NE 4.6 mph - 0.00 in Rain Light Rain
6:46 AM 45.0 °F 41.2 °F 43.0 °F 93% 30.01 in 1.8 mi NE 6.9 mph - 0.00 in Rain Light Rain
6:53 AM 45.0 °F 40.6 °F 43.0 °F 93% 30.00 in 2.0 mi NE 8.1 mph - 0.00 in Rain Light Rain
7:17 AM 45.0 °F 41.2 °F 43.0 °F 93% 30.00 in 2.5 mi NE 6.9 mph - 0.00 in   Overcast
7:36 AM 45.0 °F 40.6 °F 43.0 °F 93% 30.00 in 3.0 mi NE 8.1 mph - 0.00 in   Overcast
7:53 AM 45.0 °F 40.1 °F 44.1 °F 97% 30.01 in 2.5 mi NE 9.2 mph - 0.00 in   Overcast
8:08 AM 45.0 °F 39.7 °F 43.0 °F 93% 30.01 in 1.5 mi NE 10.4 mph - N/A   Overcast
8:16 AM 45.0 °F 41.8 °F 43.0 °F 93% 30.02 in 1.2 mi NE 5.8 mph - N/A   Overcast
8:44 AM 45.0 °F 40.6 °F 43.0 °F 93% 30.02 in 0.8 mi ENE 8.1 mph - N/A   Overcast
8:53 AM 45.0 °F 40.1 °F 43.0 °F 93% 30.02 in 0.5 mi ENE 9.2 mph - N/A Fog Fog
9:53 AM 45.0 °F 40.6 °F 44.1 °F 97% 30.02 in 0.8 mi East 8.1 mph - 0.00 in   Overcast
10:53 AM 46.0 °F 41.9 °F 45.0 °F 96% 30.02 in 0.5 mi ENE 8.1 mph - N/A Fog Fog
11:26 AM 46.0 °F 40.6 °F 45.0 °F 96% 29.98 in 0.2 mi ENE 11.5 mph - N/A Fog Fog
11:53 AM 46.9 °F - 46.0 °F 97% 29.96 in 0.2 mi NE 9.2 mph - N/A Fog Fog
12:01 PM 48.0 °F - 46.0 °F 93% 29.97 in 0.5 mi NE 8.1 mph - N/A Fog Fog
12:28 PM 48.0 °F - 46.9 °F 96% 29.96 in 1.0 mi ENE 9.2 mph - N/A   Overcast
12:38 PM 48.0 °F - 46.9 °F 96% 29.95 in 0.8 mi ENE 8.1 mph - N/A   Overcast
12:48 PM 48.2 °F - 46.4 °F 93% 29.94 in 1.2 mi ENE 6.9 mph - N/A   Overcast
12:53 PM 48.0 °F - 46.9 °F 96% 29.94 in 1.8 mi NE 5.8 mph - N/A   Overcast
1:26 PM 48.9 °F - 48.0 °F 97% 29.92 in 1.0 mi NNE 8.1 mph - 0.00 in Rain Light Rain
1:42 PM 48.9 °F - 46.9 °F 93% 29.92 in 1.8 mi NNE 5.8 mph - 0.00 in   Overcast
1:53 PM 48.9 °F - 48.0 °F 97% 29.91 in 1.8 mi NE 5.8 mph - 0.00 in Rain Light Rain
2:15 PM 48.9 °F - 48.0 °F 97% 29.91 in 1.0 mi NNE 6.9 mph - 0.00 in Rain Light Rain
2:26 PM 50.0 °F - 48.0 °F 93% 29.91 in 2.0 mi NNE 6.9 mph - 0.00 in Rain Light Rain
2:36 PM 50.0 °F - 48.0 °F 93% 29.92 in 1.2 mi NNW 3.5 mph - 0.05 in Rain Heavy Rain
2:44 PM 48.9 °F - 48.0 °F 97% 29.91 in 0.5 mi NNE 5.8 mph - 0.11 in Fog , Rain Rain
2:49 PM 48.2 °F - 46.4 °F 93% 29.92 in 1.5 mi Variable 5.8 mph - 0.11 in Rain Light Rain
2:51 PM 50.0 °F - 46.4 °F 87% 29.93 in 2.5 mi Variable 4.6 mph - 0.11 in Rain Light Rain
2:53 PM 50.0 °F - 48.0 °F 93% 29.91 in 3.0 mi North 5.8 mph - 0.11 in Rain Light Rain
3:15 PM 50.0 °F - 48.0 °F 93% 29.91 in 2.5 mi NNE 9.2 mph - 0.00 in Rain Light Rain
3:33 PM 50.0 °F - 48.0 °F 93% 29.92 in 2.0 mi NE 5.8 mph - 0.00 in Rain Light Rain
3:50 PM 50.0 °F - 48.2 °F 94% 29.91 in 2.0 mi NE 6.9 mph - 0.00 in Rain Light Rain
3:53 PM 50.0 °F - 48.0 °F 93% 29.91 in 2.0 mi NE 9.2 mph - 0.00 in Rain Light Rain
4:04 PM 50.0 °F - 48.0 °F 93% 29.91 in 4.0 mi NNE 6.9 mph - 0.00 in   Overcast
4:53 PM 50.0 °F - 48.0 °F 93% 29.91 in 5.0 mi NE 9.2 mph - 0.00 in   Overcast
5:16 PM 50.0 °F - 48.0 °F 93% 29.92 in 2.5 mi NNE 9.2 mph - N/A   Overcast
5:45 PM 48.9 °F - 46.9 °F 93% 29.93 in 1.2 mi NE 9.2 mph - N/A   Overcast
5:53 PM 48.9 °F - 48.0 °F 97% 29.92 in 1.2 mi NNE 9.2 mph - N/A   Overcast
6:02 PM 48.9 °F - 48.0 °F 97% 29.93 in 1.5 mi NNE 6.9 mph - 0.01 in Rain Rain
6:25 PM 48.9 °F - 48.0 °F 97% 29.93 in 4.0 mi NNE 6.9 mph - 0.02 in Rain Light Rain
6:53 PM 48.9 °F - 48.0 °F 97% 29.94 in 4.0 mi NNE 6.9 mph - 0.02 in Rain Light Rain
7:03 PM 48.9 °F - 48.0 °F 97% 29.95 in 2.0 mi NNW 6.9 mph - 0.06 in Rain Rain
7:13 PM 48.9 °F - 46.9 °F 93% 29.96 in 3.0 mi WNW 8.1 mph - 0.06 in Rain Light Rain
7:20 PM 48.9 °F - 48.0 °F 97% 29.95 in 3.0 mi NW 8.1 mph - 0.07 in Rain Rain
7:33 PM 48.9 °F - 48.0 °F 97% 29.97 in 4.0 mi NW 5.8 mph - 0.07 in Rain Light Rain
7:44 PM 48.9 °F - 46.9 °F 93% 29.97 in 2.5 mi NNW 9.2 mph - 0.08 in Rain Rain
7:53 PM 48.9 °F - 46.9 °F 93% 29.96 in 4.0 mi NNW 9.2 mph - 0.08 in Rain Light Rain
8:05 PM 48.9 °F - 46.9 °F 93% 29.97 in 2.5 mi NNW 11.5 mph - 0.02 in Rain Rain
8:12 PM 48.9 °F - 46.9 °F 93% 29.98 in 5.0 mi NNW 10.4 mph - 0.02 in Rain Light Rain
8:21 PM 48.9 °F - 46.9 °F 93% 29.97 in 3.0 mi North 9.2 mph - 0.02 in Rain Light Rain
8:32 PM 48.9 °F - 46.9 °F 93% 29.98 in 3.0 mi NNW 12.7 mph - 0.02 in Rain Light Rain
8:53 PM 48.9 °F - 46.9 °F 93% 29.97 in 4.0 mi North 11.5 mph - 0.03 in Rain Light Rain
9:19 PM 50.0 °F - 46.9 °F 89% 29.98 in 2.0 mi NNE 15.0 mph - 0.09 in Rain , Thunderstorm Thunderstorms and Rain
9:26 PM 50.0 °F - 48.0 °F 93% 30.01 in 1.5 mi North 8.1 mph 19.6 mph 0.14 in Rain , Thunderstorm Thunderstorms and Rain
9:36 PM 50.0 °F - 48.0 °F 93% 29.99 in 2.0 mi North 11.5 mph - 0.20 in Rain , Thunderstorm Heavy Thunderstorms and Rain
9:43 PM 50.0 °F - 48.0 °F 93% 30.01 in 2.5 mi NNE 6.9 mph - 0.22 in Rain , Thunderstorm Thunderstorms and Rain
9:48 PM 50.0 °F - 48.2 °F 94% 30.01 in 1.8 mi NNE 5.8 mph - 0.30 in Rain , Thunderstorm Heavy Thunderstorms and Rain
9:53 PM 50.0 °F - 48.0 °F 93% 29.99 in 1.5 mi North 8.1 mph - 0.35 in Rain , Thunderstorm Heavy Thunderstorms and Rain
10:02 PM 50.0 °F - 48.0 °F 93% 29.99 in 1.8 mi NE 11.5 mph - 0.05 in Rain , Thunderstorm Rain
10:09 PM 50.0 °F - 48.0 °F 93% 30.02 in 2.5 mi NNE 3.5 mph - 0.08 in Rain Rain
10:17 PM 50.0 °F - 48.0 °F 93% 29.99 in 1.2 mi NNE 8.1 mph - 0.20 in Rain Heavy Rain
10:24 PM 50.0 °F - 48.0 °F 93% 29.99 in 2.0 mi NNE 10.4 mph - 0.22 in Rain Rain
10:37 PM 48.9 °F - 48.0 °F 97% 29.97 in 1.8 mi North 13.8 mph - 0.37 in Rain Heavy Rain
10:41 PM 48.9 °F - 48.0 °F 97% 29.97 in 3.0 mi NNE 11.5 mph - 0.37 in Rain Rain
10:53 PM 48.9 °F - 48.0 °F 97% 29.99 in 7.0 mi NNE 9.2 mph - 0.38 in Rain Light Rain
11:08 PM 50.0 °F - 48.0 °F 93% 30.01 in 5.0 mi NNE 8.1 mph - 0.02 in Rain Rain
11:18 PM 50.0 °F - 48.0 °F 93% 30.01 in 2.0 mi NNE 9.2 mph - 0.09 in Rain Heavy Rain
11:33 PM 50.0 °F - 48.0 °F 93% 30.03 in 3.0 mi NW 4.6 mph - 0.13 in Rain Rain
11:51 PM 50.0 °F - 48.2 °F 94% 30.00 in 2.5 mi North 9.2 mph - 0.18 in Rain Heavy Rain
11:53 PM 50.0 °F - 48.9 °F 96% 29.99 in 2.5 mi North 9.2 mph - 0.19 in Rain Heavy Rain